This demonstration page uses our WeatherBlox Daily Observations layout. Learn more.

Left ArrowRight Arrow

38.80484, -77.04692

Hourly Observations for October 22, 2019

Temp ( °F °C ) Dew Point ( °F °C ) Humidity (%) Winds ( mph kmh ) Pressure ( in mb ) Visibility ( mi km ) Precip ( " mm )
12:52 am 00:52 Cloudy 59 15 55 12.8 87 87 S 6 9 30.07 1018 10 16 0.00 0.00
1:52 am 01:52 Cloudy 59 15 55 12.8 87 87 S 6 9 30.08 1019 10 16 0.00 0.00
2:42 am 02:42 Cloudy 59 15 55 12.8 87 87 S 8 13 30.06 1018 10 16 0.00 0.00
2:52 am 02:52 Cloudy 59 15 55 12.8 87 87 S 8 13 30.06 1018 10 16 0.00 0.00
3:52 am 03:52 Cloudy 59 15 55 12.8 87 87 S 8 13 30.03 1017 10 16 0.00 0.00
4:52 am 04:52 Cloudy 59 15 56 13.3 90 90 SE 7 11 30.01 1016 10 16 0.00 0.00
5:20 am 05:20 Cloudy 59 15 56 13.3 90 90 S 5 7 30.03 1017 10 16 0.00 0.00
5:52 am 05:52 Cloudy 59 15 56 13.3 90 90 S 7 11 30.02 1017 10 16 0.00 0.00
6:52 am 06:52 Cloudy with Drizzle 59 15 57 13.9 93 93 SSE 8 13 30.00 1016 4 6 0.00 0.00
7:02 am 07:02 Cloudy with Drizzle 59 15 57 13.9 93 93 SSE 8 13 30.00 1016 4 6 0.00 0.00
7:52 am 07:52 Cloudy 59 15 57 13.9 93 93 S 9 15 30.01 1016 7 11 0.00 0.00
8:02 am 08:02 Cloudy 59 15 57 13.9 93 93 S 10 17 30.00 1016 10 16 0.00 0.00
8:45 am 08:45 Cloudy 59 15 56 13.3 90 90 S 10 17 30.00 1016 8 13 0.00 0.00
8:52 am 08:52 Cloudy 59 15 57 13.9 93 93 SSW 10 17 30.01 1016 9 14 0.00 0.00
9:52 am 09:52 Cloudy 59 15 57 13.9 93 93 SSE 10 17 29.97 1015 10 16 0.00 0.00
10:52 am 10:52 Cloudy 60 15.6 57 13.9 90 90 SSE 10 17 29.96 1015 10 16 0.00 0.00
11:21 am 11:21 Cloudy 60 15.6 57 13.9 90 90 S 10 17 29.94 1014 10 16 0.00 0.00
11:52 am 11:52 Cloudy 61 16.1 57 13.9 87 87 SSE 10 17 29.93 1014 10 16 0.00 0.00
12:20 pm 12:20 Cloudy 61 16.1 57 13.9 87 87 SE 10 17 29.91 1013 10 16 0.00 0.00
12:52 pm 12:52 Cloudy 63 17.2 57 13.9 81 81 S 13 20 29.89 1012 10 16 0.00 0.00
1:52 pm 13:52 Cloudy 63 17.2 58 14.4 84 84 SSE 14 22 29.84 1011 10 16 0.00 0.00
2:25 pm 14:25 Cloudy with Light Rain 62 16.7 59 15 90 90 SSE 14 22 29.83 1010 9 14 0.01 0.25
2:45 pm 14:45 Cloudy with Heavy Rain 62 16.7 59 15 90 90 SE 12 19 29.80 1009 3 5 0.04 1.02
2:52 pm 14:52 Cloudy with Rain 62 16.7 60 15.6 93 93 SSE 8 13 29.81 1010 3 4 0.07 1.78
2:59 pm 14:59 Cloudy with Light Rain 62 16.7 60 15.6 93 93 S 7 11 29.80 1009 3 5 0.01 0.25
3:13 pm 15:13 Cloudy with Light Rain 62 16.7 60 15.6 93 93 S 7 11 29.80 1009 6 10 0.02 0.51
3:17 pm 15:17 Cloudy with Heavy Rain 62 16.7 60 15.6 93 93 SSW 7 11 29.83 1010 2 3 0.04 1.02
3:19 pm 15:19 Cloudy with Heavy Rain 62 16.7 60 15.6 93 93 S 5 7 29.83 1010 2 2 0.08 2.03
3:27 pm 15:27 Cloudy with Heavy Rain 62 16.7 60 15.6 93 93 SSW 5 7 29.83 1010 1 2 0.16 4.06
3:29 pm 15:29 Cloudy with Heavy Rain 62 16.7 60 15.6 93 93 SSW 5 7 29.80 1009 1 2 0.17 4.32
3:33 pm 15:33 Cloudy with Light Rain 62 16.7 60 15.6 93 93 SSE 3 6 29.80 1009 3 4 0.17 4.32
3:35 pm 15:35 Cloudy with Light Rain 62 16.7 60 15.6 93 93 SSE 3 6 29.80 1009 3 5 0.17 4.32
3:44 pm 15:44 Cloudy with Light Rain 62 16.7 61 16.1 96 96 Calm 29.80 1009 9 14 0.18 4.57
3:47 pm 15:47 Cloudy with Light Rain 63 17 61 16 94 94 Calm 29.80 1009 9 14 0.18 4.57
4:02 pm 16:02 Cloudy with Rain 62 16.7 61 16.1 96 96 Calm 29.80 1009 2 3 0.02 0.51
4:04 pm 16:04 Cloudy with Heavy Rain 62 16.7 61 16.1 96 96 Calm 29.80 1009 2 2 0.03 0.76
4:14 pm 16:14 Cloudy with Rain 62 16.7 61 16.1 96 96 Calm 29.80 1009 2 3 0.07 1.78
4:17 pm 16:17 Cloudy with Rain 62 16.7 61 16.1 96 96 Calm 29.80 1009 2 3 0.07 1.78
4:23 pm 16:23 Cloudy with Rain 62 16.7 61 16.1 96 96 VRB 3 6 29.80 1009 2 3 0.08 2.03
4:27 pm 16:27 Cloudy with Light Rain 62 16.7 61 16.1 96 96 Calm 29.80 1009 2 3 0.09 2.29
4:41 pm 16:41 Cloudy with Rain 62 16.7 61 16.1 96 96 WNW 17 28 29.83 1010 3 5 0.13 3.30
4:44 pm 16:44 Cloudy with Rain 62 16.7 61 16.1 96 96 WNW 13 20 29.83 1010 2 3 0.13 3.30
4:46 pm 16:46 Cloudy with Heavy Rain 63 17 61 16 94 94 WNW 13 20 29.83 1010 2 2 0.15 3.81
4:52 pm 16:52 Cloudy with Heavy Rain 62 16.7 61 16.1 96 96 WNW 10 17 29.84 1010 1 2 0.23 5.84
4:57 pm 16:57 Cloudy with Rain 62 16.7 60 15.6 93 93 WNW 10 17 29.83 1010 2 3 0.01 0.25
5:08 pm 17:08 Cloudy with Light Rain 61 16.1 60 15.6 97 97 NW 12 19 29.83 1010 3 4 0.06 1.52
5:10 pm 17:10 Cloudy with Light Rain 61 16.1 59 15 93 93 NW 10 17 29.83 1010 4 6 0.06 1.52
5:12 pm 17:12 Cloudy with Light Rain 61 16.1 59 15 93 93 NW 14 22 29.83 1010 5 8 0.06 1.52
5:52 pm 17:52 Cloudy with Light Rain 61 16.1 59 15 93 93 N 8 13 29.83 1010 3 5 0.09 2.29
6:52 pm 18:52 Cloudy 61 16.1 59 15 93 93 E 5 7 29.80 1009 10 16 0.01 0.25
7:52 pm 19:52 Cloudy 61 16.1 59 15 93 93 N 5 7 29.83 1010 10 16 0.00 0.00
8:18 pm 20:18 Cloudy 61 16.1 59 15 93 93 NNW 8 13 29.85 1011 10 16 0.00 0.00
8:52 pm 20:52 Mostly Cloudy 61 16.1 58 14.4 90 90 NNW 5 7 29.85 1011 10 16 0.00 0.00
8:55 pm 20:55 Mostly Cloudy 61 16.1 58 14.4 90 90 NW 3 6 29.85 1011 10 16 0.00 0.00
9:52 pm 21:52 Mostly Cloudy 61 16.1 58 14.4 90 90 NW 3 6 29.87 1012 10 16 0.00 0.00
10:52 pm 22:52 Mostly Clear 58 14.4 56 13.3 93 93 NNW 7 11 29.88 1012 10 16 0.00 0.00
11:52 pm 23:52 Mostly Clear 56 13.3 55 12.8 97 97 NNW 6 9 29.87 1011 10 16 0.00 0.00

Powered by AerisWeather